| time (UTC) | temp F | wind direction | speed MPH | gust MPH | rain 1hr in | rain 24hr in | rain mn in | humidity % | barometer mb |
| 20260905015826 | 86 | 240 | 6.0 | 6.0 | 0.00 | 0.00 | 0.00 | 32 | 1012.4 |
| 20260905015320 | 86 | 226 | 3.0 | 4.0 | 0.00 | 0.00 | 0.00 | 32 | 1012.4 |
| 20260905014819 | 87 | 225 | 2.0 | 3.0 | 0.00 | 0.00 | 0.00 | 32 | 1012.2 |
| 20260905014315 | 86 | 167 | 2.0 | 2.0 | 0.00 | 0.00 | 0.00 | 32 | 1012.6 |
| 20260905013810 | 85 | 202 | 0.0 | 0.0 | 0.00 | 0.00 | 0.00 | 33 | 1012.3 |
| 20260905013306 | 86 | 202 | 0.0 | 0.0 | 0.00 | 0.00 | 0.00 | 32 | 1012.3 |
| 20260905012801 | 86 | 122 | 0.0 | 2.0 | 0.00 | 0.00 | 0.00 | 31 | 1012.3 |
| 20260905012256 | 87 | 254 | 3.0 | 4.0 | 0.00 | 0.00 | 0.00 | 31 | 1012.2 |
| 20260905011753 | 88 | 284 | 1.0 | 2.0 | 0.00 | 0.00 | 0.00 | 29 | 1012.3 |
| 20260905011249 | 88 | 239 | 2.0 | 4.0 | 0.00 | 0.00 | 0.00 | 29 | 1012.4 |
| 20260905010743 | 88 | 218 | 4.0 | 7.0 | 0.00 | 0.00 | 0.00 | 30 | 1012.3 |
| 20260905010239 | 89 | 138 | 4.0 | 6.0 | 0.00 | 0.00 | 0.00 | 30 | 1012.2 |
| 20260905005736 | 89 | 136 | 4.0 | 5.0 | 0.00 | 0.00 | 0.00 | 30 | 1012.3 |
| 20260905005231 | 90 | 146 | 5.0 | 6.0 | 0.00 | 0.00 | 0.00 | 30 | 1012.0 |
| 20260905004730 | 90 | 133 | 7.0 | 8.0 | 0.00 | 0.00 | 0.00 | 29 | 1012.1 |
| 20260905004226 | 90 | 146 | 7.0 | 12.0 | 0.00 | 0.00 | 0.00 | 29 | 1012.2 |
| 20260905003725 | 90 | 144 | 4.0 | 9.0 | 0.00 | 0.00 | 0.00 | 30 | 1011.8 |
| 20260905003221 | 90 | 156 | 5.0 | 7.0 | 0.00 | 0.00 | 0.00 | 30 | 1012.0 |
| 20260905002717 | 90 | 144 | 7.0 | 9.0 | 0.00 | 0.00 | 0.00 | 30 | 1012.0 |
| 20260905002217 | 91 | 139 | 9.0 | 11.0 | 0.00 | 0.00 | 0.00 | 30 | 1011.7 |
| 20260905001712 | 91 | 145 | 9.0 | 13.0 | 0.00 | 0.00 | 0.00 | 30 | 1011.7 |
| 20260905001211 | 91 | 157 | 7.0 | 9.0 | 0.00 | 0.00 | 0.00 | 29 | 1011.6 |
| 20260905000706 | 91 | 157 | 6.0 | 10.0 | 0.00 | 0.00 | 0.00 | 28 | 1011.7 |
| 20260905000204 | 92 | 175 | 9.0 | 11.0 | 0.00 | 0.00 | 0.00 | 28 | 1011.8 |
| 20260904235702 | 92 | 191 | 10.0 | 11.0 | 0.00 | 0.00 | 0.00 | 28 | 1011.5 |
| 20260904235157 | 92 | 206 | 10.0 | 12.0 | 0.00 | 0.00 | 0.00 | 28 | 1011.6 |
| 20260904234652 | 92 | 210 | 11.0 | 15.0 | 0.00 | 0.00 | 0.00 | 28 | 1011.5 |
| 20260904234148 | 92 | 195 | 13.0 | 19.0 | 0.00 | 0.00 | 0.00 | 29 | 1011.7 |
| 20260904233643 | 93 | 200 | 12.0 | 19.0 | 0.00 | 0.00 | 0.00 | 28 | 1011.7 |
| 20260904233139 | 93 | 197 | 20.0 | 22.0 | 0.00 | 0.00 | 0.00 | 28 | 1011.4 |
| 20260904232635 | 92 | 202 | 19.0 | 21.0 | 0.00 | 0.00 | 0.00 | 29 | 1011.4 |
| 20260904232131 | 92 | 206 | 20.0 | 22.0 | 0.00 | 0.00 | 0.00 | 28 | 1011.4 |
| 20260904231626 | 93 | 190 | 17.0 | 19.0 | 0.00 | 0.00 | 0.00 | 27 | 1011.4 |
| 20260904231121 | 93 | 187 | 11.0 | 20.0 | 0.00 | 0.00 | 0.00 | 27 | 1011.5 |
| 20260904230621 | 93 | 171 | 13.0 | 15.0 | 0.00 | 0.00 | 0.00 | 26 | 1011.5 |
| 20260904230116 | 93 | 189 | 9.0 | 12.0 | 0.00 | 0.00 | 0.00 | 26 | 1011.2 |
| 20260904225613 | 94 | 217 | 7.0 | 9.0 | 0.00 | 0.00 | 0.00 | 26 | 1011.3 |
| 20260904225108 | 94 | 186 | 5.0 | 11.0 | 0.00 | 0.00 | 0.00 | 26 | 1011.4 |
| 20260904224603 | 94 | 247 | 4.0 | 9.0 | 0.00 | 0.00 | 0.00 | 26 | 1011.2 |
| 20260904224058 | 94 | 228 | 9.0 | 11.0 | 0.00 | 0.00 | 0.00 | 26 | 1011.1 |
| 20260904223557 | 94 | 185 | 6.0 | 11.0 | 0.00 | 0.00 | 0.00 | 26 | 1011.2 |
| 20260904223053 | 94 | 180 | 9.0 | 15.0 | 0.00 | 0.00 | 0.00 | 26 | 1011.4 |
| 20260904222549 | 93 | 180 | 7.0 | 10.0 | 0.00 | 0.00 | 0.00 | 26 | 1011.2 |
| 20260904222044 | 94 | 194 | 7.0 | 11.0 | 0.00 | 0.00 | 0.00 | 26 | 1011.5 |
| 20260904221538 | 94 | 201 | 6.0 | 10.0 | 0.00 | 0.00 | 0.00 | 26 | 1011.3 |
| 20260904221033 | 94 | 190 | 12.0 | 13.0 | 0.00 | 0.00 | 0.00 | 26 | 1011.4 |
| 20260904220533 | 94 | 201 | 13.0 | 14.0 | 0.00 | 0.00 | 0.00 | 26 | 1011.2 |
| 20260904220029 | 93 | 195 | 6.0 | 12.0 | 0.00 | 0.00 | 0.00 | 26 | 1011.2 |
| 20260904215528 | 94 | 230 | 7.0 | 10.0 | 0.00 | 0.00 | 0.00 | 26 | 1011.3 |
| 20260904215024 | 93 | 205 | 12.0 | 18.0 | 0.00 | 0.00 | 0.00 | 27 | 1011.5 |
| 20260904214520 | 93 | 203 | 9.0 | 16.0 | 0.00 | 0.00 | 0.00 | 27 | 1011.5 |
| 20260904214015 | 93 | 211 | 14.0 | 15.0 | 0.00 | 0.00 | 0.00 | 27 | 1011.3 |
| 20260904213513 | 94 | 203 | 19.0 | 20.0 | 0.00 | 0.00 | 0.00 | 27 | 1011.2 |
| 20260904213010 | 94 | 206 | 16.0 | 22.0 | 0.00 | 0.00 | 0.00 | 27 | 1011.7 |
| 20260904212509 | 96 | 168 | 13.0 | 19.0 | 0.00 | 0.00 | 0.00 | 26 | 1011.5 |
| 20260904212004 | 95 | 196 | 12.0 | 17.0 | 0.00 | 0.00 | 0.00 | 26 | 1011.5 |
| 20260904211503 | 95 | 215 | 14.0 | 15.0 | 0.00 | 0.00 | 0.00 | 26 | 1011.4 |
| 20260904210959 | 94 | 176 | 7.0 | 8.0 | 0.00 | 0.00 | 0.00 | 26 | 1011.6 |
| 20260904210458 | 94 | 204 | 17.0 | 18.0 | 0.00 | 0.00 | 0.00 | 26 | 1011.6 |
| 20260904205954 | 95 | 168 | 10.0 | 11.0 | 0.00 | 0.00 | 0.00 | 25 | 1011.8 |
| 20260904205449 | 95 | 251 | 5.0 | 9.0 | 0.00 | 0.00 | 0.00 | 26 | 1011.7 |
| 20260904204947 | 94 | 237 | 7.0 | 13.0 | 0.00 | 0.00 | 0.00 | 27 | 1012.0 |
| 20260904204442 | 93 | 243 | 9.0 | 16.0 | 0.00 | 0.00 | 0.00 | 27 | 1012.1 |
| 20260904203938 | 95 | 221 | 11.0 | 19.0 | 0.00 | 0.00 | 0.00 | 26 | 1012.3 |
| 20260904203434 | 95 | 236 | 8.0 | 18.0 | 0.00 | 0.00 | 0.00 | 26 | 1012.2 |
| 20260904202930 | 95 | 252 | 9.0 | 9.0 | 0.00 | 0.00 | 0.00 | 25 | 1012.2 |
| 20260904202426 | 96 | 228 | 12.0 | 19.0 | 0.00 | 0.00 | 0.00 | 24 | 1012.2 |
| 20260904201922 | 96 | 241 | 8.0 | 21.0 | 0.00 | 0.00 | 0.00 | 25 | 1012.3 |
| 20260904201417 | 95 | 158 | 8.0 | 12.0 | 0.00 | 0.00 | 0.00 | 26 | 1012.5 |
| 20260904200913 | 95 | 165 | 11.0 | 12.0 | 0.00 | 0.00 | 0.00 | 26 | 1012.4 |
| 20260904200411 | 94 | 191 | 11.0 | 15.0 | 0.00 | 0.00 | 0.00 | 27 | 1012.2 |
| 20260904195906 | 93 | 187 | 8.0 | 11.0 | 0.00 | 0.00 | 0.00 | 28 | 1012.5 |
| 20260904195404 | 93 | 160 | 3.0 | 6.0 | 0.00 | 0.00 | 0.00 | 27 | 1012.8 |
| 20260904194859 | 97 | 200 | 9.0 | 13.0 | 0.00 | 0.00 | 0.00 | 25 | 1012.8 |
| 20260904194358 | 95 | 247 | 15.0 | 18.0 | 0.00 | 0.00 | 0.00 | 26 | 1012.6 |
| 20260904193854 | 96 | 209 | 16.0 | 17.0 | 0.00 | 0.00 | 0.00 | 26 | 1012.9 |
| 20260904193349 | 96 | 119 | 7.0 | 10.0 | 0.00 | 0.00 | 0.00 | 26 | 1012.8 |
| 20260904192844 | 93 | 241 | 6.0 | 11.0 | 0.00 | 0.00 | 0.00 | 28 | 1012.8 |
| 20260904192339 | 94 | 256 | 10.0 | 11.0 | 0.00 | 0.00 | 0.00 | 27 | 1012.9 |
| 20260904191836 | 94 | 218 | 10.0 | 12.0 | 0.00 | 0.00 | 0.00 | 27 | 1013.0 |
| 20260904191332 | 95 | 205 | 8.0 | 9.0 | 0.00 | 0.00 | 0.00 | 27 | 1013.0 |
| 20260904190828 | 95 | 229 | 6.0 | 9.0 | 0.00 | 0.00 | 0.00 | 27 | 1013.1 |
| 20260904190324 | 94 | 139 | 10.0 | 11.0 | 0.00 | 0.00 | 0.00 | 27 | 1013.0 |
| 20260904185820 | 94 | 280 | 7.0 | 15.0 | 0.00 | 0.00 | 0.00 | 27 | 1013.0 |
| 20260904185316 | 95 | 205 | 3.0 | 17.0 | 0.00 | 0.00 | 0.00 | 27 | 1013.7 |
| 20260904184815 | 94 | 243 | 6.0 | 21.0 | 0.00 | 0.00 | 0.00 | 28 | 1013.4 |
| 20260904184310 | 95 | 267 | 2.0 | 11.0 | 0.00 | 0.00 | 0.00 | 28 | 1013.6 |
| 20260904183805 | 94 | 340 | 3.0 | 4.0 | 0.00 | 0.00 | 0.00 | 28 | 1013.4 |
| 20260904183300 | 93 | 198 | 5.0 | 6.0 | 0.00 | 0.00 | 0.00 | 28 | 1013.6 |
| 20260904182755 | 94 | 236 | 7.0 | 7.0 | 0.00 | 0.00 | 0.00 | 28 | 1013.7 |
| 20260904182250 | 94 | 165 | 2.0 | 10.0 | 0.00 | 0.00 | 0.00 | 28 | 1013.6 |
| 20260904181746 | 93 | 258 | 11.0 | 12.0 | 0.00 | 0.00 | 0.00 | 29 | 1013.8 |
| 20260904181245 | 94 | 230 | 3.0 | 5.0 | 0.00 | 0.00 | 0.00 | 28 | 1014.1 |
| 20260904180740 | 91 | 221 | 2.0 | 12.0 | 0.00 | 0.00 | 0.00 | 30 | 1013.9 |
| 20260904180236 | 93 | 325 | 5.0 | 7.0 | 0.00 | 0.00 | 0.00 | 29 | 1014.1 |
| 20260904175729 | 92 | 337 | 11.0 | 12.0 | 0.00 | 0.00 | 0.00 | 29 | 1014.1 |
| 20260904175228 | 92 | 265 | 8.0 | 9.0 | 0.00 | 0.00 | 0.00 | 30 | 1014.1 |
| 20260904174723 | 92 | 294 | 6.0 | 9.0 | 0.00 | 0.00 | 0.00 | 30 | 1014.3 |
| 20260904174219 | 93 | 254 | 6.0 | 13.0 | 0.00 | 0.00 | 0.00 | 29 | 1014.3 |
| 20260904173714 | 92 | 110 | 1.0 | 3.0 | 0.00 | 0.00 | 0.00 | 29 | 1014.2 |
| 20260904173209 | 90 | 330 | 4.0 | 7.0 | 0.00 | 0.00 | 0.00 | 31 | 1014.5 |
| 20260904172706 | 90 | 291 | 10.0 | 12.0 | 0.00 | 0.00 | 0.00 | 32 | 1014.3 |
| 20260904172204 | 89 | 321 | 8.0 | 12.0 | 0.00 | 0.00 | 0.00 | 31 | 1014.3 |
| 20260904171700 | 89 | 241 | 7.0 | 12.0 | 0.00 | 0.00 | 0.00 | 31 | 1014.6 |
| 20260904171155 | 89 | 258 | 4.0 | 10.0 | 0.00 | 0.00 | 0.00 | 31 | 1014.6 |
| 20260904170651 | 89 | 334 | 9.0 | 13.0 | 0.00 | 0.00 | 0.00 | 31 | 1014.6 |
| 20260904170147 | 89 | 265 | 7.0 | 12.0 | 0.00 | 0.00 | 0.00 | 31 | 1014.8 |
| 20260904165645 | 88 | 304 | 10.0 | 12.0 | 0.00 | 0.00 | 0.00 | 33 | 1014.5 |
| 20260904165144 | 88 | 291 | 9.0 | 11.0 | 0.00 | 0.00 | 0.00 | 34 | 1014.2 |
| 20260904164640 | 87 | 287 | 6.0 | 13.0 | 0.00 | 0.00 | 0.00 | 34 | 1014.7 |
| 20260904164135 | 88 | 247 | 12.0 | 14.0 | 0.00 | 0.00 | 0.00 | 34 | 1014.6 |
| 20260904163630 | 88 | 239 | 11.0 | 17.0 | 0.00 | 0.00 | 0.00 | 35 | 1014.7 |
| 20260904163126 | 87 | 242 | 11.0 | 11.0 | 0.00 | 0.00 | 0.00 | 35 | 1014.6 |
| 20260904162620 | 88 | 242 | 13.0 | 13.0 | 0.00 | 0.00 | 0.00 | 35 | 1014.6 |
| 20260904162115 | 88 | 281 | 12.0 | 19.0 | 0.00 | 0.00 | 0.00 | 36 | 1014.6 |
| 20260904161610 | 88 | 247 | 10.0 | 15.0 | 0.00 | 0.00 | 0.00 | 36 | 1014.6 |
| 20260904161105 | 87 | 264 | 13.0 | 15.0 | 0.00 | 0.00 | 0.00 | 36 | 1014.6 |
| 20260904160601 | 86 | 244 | 12.0 | 18.0 | 0.00 | 0.00 | 0.00 | 38 | 1014.6 |
| 20260904160057 | 86 | 264 | 13.0 | 17.0 | 0.00 | 0.00 | 0.00 | 37 | 1014.3 |
| 20260904155555 | 86 | 248 | 16.0 | 18.0 | 0.00 | 0.00 | 0.00 | 37 | 1014.3 |
| 20260904155050 | 86 | 249 | 10.0 | 14.0 | 0.00 | 0.00 | 0.00 | 38 | 1014.5 |
| 20260904154543 | 86 | 236 | 15.0 | 22.0 | 0.00 | 0.00 | 0.00 | 38 | 1014.3 |
| 20260904154038 | 85 | 250 | 15.0 | 21.0 | 0.00 | 0.00 | 0.00 | 38 | 1014.3 |
| 20260904153538 | 84 | 238 | 15.0 | 22.0 | 0.00 | 0.00 | 0.00 | 39 | 1014.0 |
| 20260904153034 | 85 | 236 | 15.0 | 18.0 | 0.00 | 0.00 | 0.00 | 38 | 1014.1 |
| 20260904152530 | 85 | 244 | 16.0 | 16.0 | 0.00 | 0.00 | 0.00 | 39 | 1014.5 |
| 20260904152026 | 84 | 231 | 13.0 | 18.0 | 0.00 | 0.00 | 0.00 | 40 | 1014.2 |
| 20260904151521 | 83 | 238 | 12.0 | 19.0 | 0.00 | 0.00 | 0.00 | 40 | 1014.3 |
| 20260904151021 | 83 | 249 | 13.0 | 18.0 | 0.00 | 0.00 | 0.00 | 41 | 1014.3 |
| 20260904150520 | 83 | 229 | 13.0 | 15.0 | 0.00 | 0.00 | 0.00 | 41 | 1014.2 |
| 20260904150015 | 82 | 234 | 9.0 | 11.0 | 0.00 | 0.00 | 0.00 | 43 | 1013.9 |
| 20260904145510 | 81 | 216 | 7.0 | 10.0 | 0.00 | 0.00 | 0.00 | 44 | 1014.2 |
| 20260904145005 | 81 | 238 | 9.0 | 11.0 | 0.00 | 0.00 | 0.00 | 45 | 1014.2 |
| 20260904144501 | 80 | 180 | 7.0 | 11.0 | 0.00 | 0.00 | 0.00 | 46 | 1014.2 |
| 20260904143956 | 80 | 197 | 8.0 | 9.0 | 0.00 | 0.00 | 0.00 | 47 | 1014.5 |
| 20260904143452 | 80 | 214 | 8.0 | 10.0 | 0.00 | 0.00 | 0.00 | 47 | 1014.2 |
| 20260904142949 | 80 | 203 | 8.0 | 12.0 | 0.00 | 0.00 | 0.00 | 46 | 1014.3 |
| 20260904142445 | 80 | 217 | 9.0 | 11.0 | 0.00 | 0.00 | 0.00 | 47 | 1014.2 |
| 20260904141944 | 80 | 184 | 7.0 | 11.0 | 0.00 | 0.00 | 0.00 | 48 | 1014.3 |
| 20260904141439 | 79 | 187 | 7.0 | 10.0 | 0.00 | 0.00 | 0.00 | 49 | 1014.2 |
| 20260904140936 | 77 | 173 | 7.0 | 7.0 | 0.00 | 0.00 | 0.00 | 50 | 1014.0 |
| 20260904140436 | 78 | 203 | 6.0 | 7.0 | 0.00 | 0.00 | 0.00 | 50 | 1013.9 |
| 20260904135935 | 77 | 201 | 5.0 | 6.0 | 0.00 | 0.00 | 0.00 | 50 | 1013.8 |
| 20260904135434 | 77 | 236 | 2.0 | 4.0 | 0.00 | 0.00 | 0.00 | 52 | 1013.4 |
| 20260904134931 | 76 | 252 | 3.0 | 5.0 | 0.00 | 0.00 | 0.00 | 53 | 1013.8 |
| 20260904134431 | 75 | 257 | 4.0 | 5.0 | 0.00 | 0.00 | 0.00 | 54 | 1013.8 |
| 20260904133925 | 74 | 253 | 3.0 | 3.0 | 0.00 | 0.00 | 0.00 | 55 | 1013.6 |
| 20260904133421 | 73 | 287 | 4.0 | 4.0 | 0.00 | 0.00 | 0.00 | 56 | 1013.6 |
| 20260904132916 | 72 | 300 | 3.0 | 3.0 | 0.00 | 0.00 | 0.00 | 57 | 1013.3 |
| 20260904132411 | 72 | 279 | 3.0 | 4.0 | 0.00 | 0.00 | 0.00 | 57 | 1013.6 |
| 20260904131910 | 72 | 272 | 0.0 | 2.0 | 0.00 | 0.00 | 0.00 | 58 | 1013.6 |
| 20260904131406 | 71 | 280 | 1.0 | 2.0 | 0.00 | 0.00 | 0.00 | 59 | 1013.4 |
| 20260904130901 | 71 | 214 | 0.0 | 1.0 | 0.00 | 0.00 | 0.00 | 59 | 1013.4 |
| 20260904130400 | 70 | 157 | 0.0 | 2.0 | 0.00 | 0.00 | 0.00 | 60 | 1013.2 |
| 20260904125855 | 69 | 179 | 3.0 | 4.0 | 0.00 | 0.00 | 0.00 | 61 | 1013.4 |
| 20260904125352 | 69 | 227 | 2.0 | 3.0 | 0.00 | 0.00 | 0.00 | 62 | 1013.3 |
| 20260904124850 | 69 | 237 | 3.0 | 4.0 | 0.00 | 0.00 | 0.00 | 63 | 1013.1 |
| 20260904124348 | 68 | 238 | 3.0 | 4.0 | 0.00 | 0.00 | 0.00 | 63 | 1012.9 |
| 20260904123842 | 68 | 225 | 3.0 | 4.0 | 0.00 | 0.00 | 0.00 | 63 | 1013.1 |
| 20260904123338 | 68 | 247 | 5.0 | 5.0 | 0.00 | 0.00 | 0.00 | 63 | 1013.0 |
| 20260904122833 | 68 | 241 | 5.0 | 5.0 | 0.00 | 0.00 | 0.00 | 63 | 1012.8 |
| 20260904122332 | 68 | 255 | 4.0 | 4.0 | 0.00 | 0.00 | 0.00 | 64 | 1012.9 |
| 20260904121827 | 68 | 248 | 4.0 | 5.0 | 0.00 | 0.00 | 0.00 | 63 | 1012.8 |
| 20260904121324 | 68 | 239 | 4.0 | 5.0 | 0.00 | 0.00 | 0.00 | 64 | 1012.9 |
| 20260904120820 | 67 | 231 | 3.0 | 4.0 | 0.00 | 0.00 | 0.00 | 64 | 1013.0 |
| 20260904120315 | 68 | 247 | 3.0 | 3.0 | 0.00 | 0.00 | 0.00 | 63 | 1012.6 |
| 20260904115810 | 68 | 231 | 3.0 | 4.0 | 0.00 | 0.00 | 0.00 | 63 | 1012.9 |
| 20260904115306 | 69 | 229 | 4.0 | 6.0 | 0.00 | 0.00 | 0.00 | 62 | 1012.9 |
| 20260904114806 | 69 | 222 | 4.0 | 5.0 | 0.00 | 0.00 | 0.00 | 62 | 1013.0 |
| 20260904114300 | 70 | 235 | 5.0 | 6.0 | 0.00 | 0.00 | 0.00 | 61 | 1012.9 |
| 20260904113755 | 69 | 244 | 4.0 | 5.0 | 0.00 | 0.00 | 0.00 | 62 | 1012.6 |
| 20260904113254 | 69 | 245 | 3.0 | 4.0 | 0.00 | 0.00 | 0.00 | 61 | 1012.8 |
| 20260904112749 | 70 | 249 | 5.0 | 6.0 | 0.00 | 0.00 | 0.00 | 61 | 1012.5 |
| 20260904112245 | 70 | 250 | 5.0 | 6.0 | 0.00 | 0.00 | 0.00 | 60 | 1012.8 |
| 20260904111741 | 70 | 248 | 6.0 | 8.0 | 0.00 | 0.00 | 0.00 | 60 | 1012.9 |
| 20260904111236 | 70 | 255 | 6.0 | 7.0 | 0.00 | 0.00 | 0.00 | 59 | 1013.0 |
| 20260904110732 | 70 | 252 | 6.0 | 7.0 | 0.00 | 0.00 | 0.00 | 59 | 1012.9 |
| 20260904110231 | 70 | 246 | 6.0 | 9.0 | 0.00 | 0.00 | 0.00 | 59 | 1012.9 |
| 20260904105726 | 71 | 240 | 5.0 | 6.0 | 0.00 | 0.00 | 0.00 | 58 | 1012.6 |
| 20260904105221 | 71 | 246 | 7.0 | 8.0 | 0.00 | 0.00 | 0.00 | 58 | 1012.8 |
| 20260904104716 | 72 | 255 | 7.0 | 9.0 | 0.00 | 0.00 | 0.00 | 57 | 1012.8 |
| 20260904104211 | 72 | 254 | 7.0 | 9.0 | 0.00 | 0.00 | 0.00 | 57 | 1012.9 |
| 20260904103708 | 72 | 252 | 8.0 | 10.0 | 0.00 | 0.00 | 0.00 | 57 | 1013.0 |
| 20260904103203 | 71 | 254 | 8.0 | 10.0 | 0.00 | 0.00 | 0.00 | 56 | 1012.9 |
| 20260904102659 | 72 | 252 | 7.0 | 9.0 | 0.00 | 0.00 | 0.00 | 56 | 1012.6 |
| 20260904102154 | 72 | 252 | 7.0 | 8.0 | 0.00 | 0.00 | 0.00 | 56 | 1012.6 |
| 20260904101651 | 72 | 249 | 8.0 | 9.0 | 0.00 | 0.00 | 0.00 | 56 | 1012.9 |
| 20260904101146 | 72 | 255 | 6.0 | 8.0 | 0.00 | 0.00 | 0.00 | 56 | 1012.8 |
| 20260904100642 | 73 | 248 | 8.0 | 10.0 | 0.00 | 0.00 | 0.00 | 55 | 1012.9 |
| 20260904100137 | 73 | 260 | 9.0 | 11.0 | 0.00 | 0.00 | 0.00 | 55 | 1012.9 |
| 20260904095636 | 72 | 250 | 8.0 | 10.0 | 0.00 | 0.00 | 0.00 | 55 | 1012.6 |
| 20260904095131 | 72 | 249 | 6.0 | 9.0 | 0.00 | 0.00 | 0.00 | 55 | 1012.8 |
| 20260904094626 | 73 | 249 | 8.0 | 9.0 | 0.00 | 0.00 | 0.00 | 54 | 1012.6 |
| 20260904094121 | 74 | 242 | 10.0 | 13.0 | 0.00 | 0.00 | 0.00 | 52 | 1012.6 |
| 20260904093618 | 75 | 235 | 9.0 | 12.0 | 0.00 | 0.00 | 0.00 | 51 | 1012.6 |
| 20260904093113 | 75 | 230 | 10.0 | 13.0 | 0.00 | 0.00 | 0.00 | 50 | 1012.9 |
| 20260904092609 | 75 | 229 | 11.0 | 12.0 | 0.00 | 0.00 | 0.00 | 51 | 1012.9 |
| 20260904092105 | 74 | 220 | 7.0 | 9.0 | 0.00 | 0.00 | 0.00 | 52 | 1012.5 |
| 20260904091601 | 75 | 216 | 7.0 | 9.0 | 0.00 | 0.00 | 0.00 | 51 | 1013.0 |
| 20260904091100 | 75 | 215 | 9.0 | 11.0 | 0.00 | 0.00 | 0.00 | 52 | 1012.6 |
| 20260904090556 | 75 | 212 | 8.0 | 11.0 | 0.00 | 0.00 | 0.00 | 51 | 1013.1 |
| 20260904090051 | 75 | 202 | 8.0 | 9.0 | 0.00 | 0.00 | 0.00 | 52 | 1012.8 |
| 20260904085546 | 75 | 204 | 8.0 | 9.0 | 0.00 | 0.00 | 0.00 | 52 | 1012.9 |
| 20260904085045 | 75 | 196 | 7.0 | 9.0 | 0.00 | 0.00 | 0.00 | 52 | 1012.9 |
| 20260904084541 | 75 | 200 | 7.0 | 10.0 | 0.00 | 0.00 | 0.00 | 52 | 1013.0 |
| 20260904084038 | 74 | 227 | 7.0 | 9.0 | 0.00 | 0.00 | 0.00 | 53 | 1012.9 |
| 20260904083533 | 74 | 231 | 8.0 | 9.0 | 0.00 | 0.00 | 0.00 | 54 | 1012.8 |
| 20260904083029 | 74 | 223 | 6.0 | 7.0 | 0.00 | 0.00 | 0.00 | 54 | 1012.8 |
| 20260904082524 | 74 | 214 | 5.0 | 5.0 | 0.00 | 0.00 | 0.00 | 54 | 1012.8 |
| 20260904082019 | 75 | 188 | 4.0 | 7.0 | 0.00 | 0.00 | 0.00 | 53 | 1012.6 |
| 20260904081514 | 75 | 168 | 5.0 | 7.0 | 0.00 | 0.00 | 0.00 | 53 | 1012.6 |
| 20260904081010 | 75 | 167 | 7.0 | 8.0 | 0.00 | 0.00 | 0.00 | 53 | 1012.6 |
| 20260904080505 | 75 | 162 | 9.0 | 11.0 | 0.00 | 0.00 | 0.00 | 53 | 1013.0 |
| 20260904080001 | 76 | 152 | 9.0 | 11.0 | 0.00 | 0.00 | 0.00 | 52 | 1012.9 |
| 20260904075457 | 75 | 153 | 10.0 | 11.0 | 0.00 | 0.00 | 0.00 | 52 | 1013.1 |
| 20260904074956 | 75 | 162 | 9.0 | 11.0 | 0.00 | 0.00 | 0.00 | 52 | 1013.1 |
| 20260904074451 | 75 | 136 | 9.0 | 10.0 | 0.00 | 0.00 | 0.00 | 53 | 1013.0 |
| 20260904073946 | 75 | 143 | 11.0 | 12.0 | 0.00 | 0.00 | 0.00 | 52 | 1013.1 |
| 20260904073441 | 76 | 147 | 12.0 | 13.0 | 0.00 | 0.00 | 0.00 | 52 | 1013.3 |
| 20260904072937 | 76 | 155 | 9.0 | 15.0 | 0.00 | 0.00 | 0.00 | 52 | 1013.2 |
| 20260904072432 | 76 | 150 | 11.0 | 12.0 | 0.00 | 0.00 | 0.00 | 52 | 1013.0 |
| 20260904071927 | 76 | 135 | 10.0 | 14.0 | 0.00 | 0.00 | 0.00 | 51 | 1013.1 |
| 20260904071423 | 76 | 129 | 8.0 | 13.0 | 0.00 | 0.00 | 0.00 | 51 | 1013.0 |
| 20260904070918 | 76 | 135 | 11.0 | 16.0 | 0.00 | 0.00 | 0.00 | 51 | 1012.9 |
| 20260904070416 | 76 | 134 | 13.0 | 17.0 | 0.00 | 0.00 | 0.00 | 51 | 1013.0 |
| 20260904065916 | 77 | 125 | 12.0 | 23.0 | 0.00 | 0.00 | 0.00 | 50 | 1013.3 |
| 20260904065413 | 77 | 139 | 11.0 | 17.0 | 0.00 | 0.00 | 0.00 | 50 | 1013.3 |
| 20260904064912 | 77 | 132 | 12.0 | 14.0 | 0.00 | 0.00 | 0.00 | 49 | 1013.3 |
| 20260904064409 | 77 | 138 | 11.0 | 13.0 | 0.00 | 0.00 | 0.00 | 49 | 1013.3 |
| 20260904063904 | 77 | 138 | 10.0 | 15.0 | 0.00 | 0.00 | 0.00 | 49 | 1013.3 |
| 20260904063401 | 77 | 129 | 10.0 | 14.0 | 0.00 | 0.00 | 0.00 | 48 | 1013.3 |
| 20260904062855 | 77 | 131 | 10.0 | 12.0 | 0.00 | 0.00 | 0.00 | 48 | 1013.2 |
| 20260904062351 | 78 | 129 | 9.0 | 13.0 | 0.00 | 0.00 | 0.00 | 47 | 1013.3 |
| 20260904061847 | 78 | 128 | 11.0 | 14.0 | 0.00 | 0.00 | 0.00 | 47 | 1013.2 |
| 20260904061343 | 78 | 124 | 9.0 | 13.0 | 0.00 | 0.00 | 0.00 | 46 | 1013.1 |
| 20260904060839 | 78 | 121 | 10.0 | 13.0 | 0.00 | 0.00 | 0.00 | 46 | 1013.2 |
| 20260904060335 | 78 | 120 | 9.0 | 14.0 | 0.00 | 0.00 | 0.00 | 45 | 1013.2 |
| 20260904055830 | 79 | 125 | 11.0 | 16.0 | 0.00 | 0.00 | 0.00 | 45 | 1013.0 |
| 20260904055325 | 79 | 129 | 11.0 | 16.0 | 0.00 | 0.00 | 0.00 | 44 | 1012.9 |
| 20260904054820 | 79 | 123 | 13.0 | 15.0 | 0.00 | 0.00 | 0.00 | 44 | 1013.2 |
| 20260904054316 | 79 | 112 | 12.0 | 16.0 | 0.00 | 0.00 | 0.00 | 43 | 1013.0 |
| 20260904053812 | 79 | 114 | 16.0 | 18.0 | 0.00 | 0.00 | 0.00 | 42 | 1013.1 |
| 20260904053311 | 80 | 119 | 16.0 | 18.0 | 0.00 | 0.00 | 0.00 | 42 | 1013.1 |
| 20260904052807 | 79 | 123 | 12.0 | 14.0 | 0.00 | 0.00 | 0.00 | 41 | 1013.1 |
| 20260904052306 | 79 | 117 | 9.0 | 10.0 | 0.00 | 0.00 | 0.00 | 42 | 1013.0 |
| 20260904051754 | 79 | 116 | 3.0 | 6.0 | 0.00 | 0.00 | 0.00 | 42 | 1013.2 |
| 20260904051249 | 79 | 98 | 4.0 | 6.0 | 0.00 | 0.00 | 0.00 | 42 | 1013.1 |
| 20260904050744 | 80 | 103 | 5.0 | 6.0 | 0.00 | 0.00 | 0.00 | 41 | 1012.9 |
| 20260904050240 | 80 | 116 | 3.0 | 3.0 | 0.00 | 0.00 | 0.00 | 41 | 1012.9 |
| 20260904045735 | 80 | 99 | 2.0 | 4.0 | 0.00 | 0.00 | 0.00 | 41 | 1013.0 |
| 20260904045230 | 80 | 99 | 4.0 | 5.0 | 0.00 | 0.00 | 0.00 | 41 | 1013.0 |
| 20260904044724 | 80 | 112 | 5.0 | 6.0 | 0.00 | 0.00 | 0.00 | 41 | 1013.0 |
| 20260904044221 | 80 | 126 | 5.0 | 6.0 | 0.00 | 0.00 | 0.00 | 41 | 1013.0 |
| 20260904043717 | 80 | 112 | 6.0 | 8.0 | 0.00 | 0.00 | 0.00 | 40 | 1013.1 |
| 20260904043213 | 80 | 120 | 7.0 | 9.0 | 0.00 | 0.00 | 0.00 | 41 | 1013.1 |
| 20260904042709 | 80 | 111 | 8.0 | 8.0 | 0.00 | 0.00 | 0.00 | 40 | 1013.1 |
| 20260904042205 | 80 | 86 | 13.0 | 13.0 | 0.00 | 0.00 | 0.00 | 40 | 1013.0 |
| 20260904041704 | 80 | 101 | 5.0 | 7.0 | 0.00 | 0.00 | 0.00 | 40 | 1012.8 |
| 20260904041201 | 80 | 99 | 4.0 | 5.0 | 0.00 | 0.00 | 0.00 | 40 | 1012.9 |
| 20260904040656 | 81 | 93 | 5.0 | 7.0 | 0.00 | 0.00 | 0.00 | 40 | 1013.2 |
| 20260904040152 | 81 | 99 | 5.0 | 9.0 | 0.00 | 0.00 | 0.00 | 41 | 1013.2 |
| 20260904035647 | 81 | 82 | 5.0 | 7.0 | 0.00 | 0.00 | 0.00 | 41 | 1013.2 |
| 20260904035143 | 81 | 103 | 4.0 | 6.0 | 0.00 | 0.00 | 0.00 | 40 | 1013.1 |
| 20260904034641 | 82 | 134 | 6.0 | 7.0 | 0.00 | 0.00 | 0.00 | 39 | 1012.9 |
| 20260904034137 | 82 | 154 | 5.0 | 7.0 | 0.00 | 0.00 | 0.00 | 39 | 1013.0 |
| 20260904033633 | 82 | 159 | 5.0 | 7.0 | 0.00 | 0.00 | 0.00 | 39 | 1013.0 |
| 20260904033130 | 82 | 184 | 4.0 | 6.0 | 0.00 | 0.00 | 0.00 | 40 | 1013.1 |
| 20260904032626 | 82 | 172 | 5.0 | 7.0 | 0.00 | 0.00 | 0.00 | 40 | 1013.0 |
| 20260904032125 | 82 | 160 | 7.0 | 9.0 | 0.00 | 0.00 | 0.00 | 40 | 1013.0 |
| 20260904031624 | 82 | 172 | 5.0 | 6.0 | 0.00 | 0.00 | 0.00 | 40 | 1012.9 |
| 20260904031120 | 82 | 225 | 7.0 | 10.0 | 0.00 | 0.00 | 0.00 | 40 | 1013.1 |
| 20260904030616 | 82 | 211 | 7.0 | 11.0 | 0.00 | 0.00 | 0.00 | 39 | 1013.0 |
| 20260904030111 | 82 | 209 | 13.0 | 15.0 | 0.00 | 0.00 | 0.00 | 40 | 1013.0 |
| 20260904025607 | 82 | 208 | 11.0 | 17.0 | 0.00 | 0.00 | 0.00 | 40 | 1012.6 |
| 20260904025101 | 82 | 217 | 13.0 | 17.0 | 0.00 | 0.00 | 0.00 | 40 | 1012.5 |
| 20260904024557 | 82 | 211 | 13.0 | 15.0 | 0.00 | 0.00 | 0.00 | 41 | 1012.4 |
| 20260904024053 | 82 | 196 | 15.0 | 16.0 | 0.00 | 0.00 | 0.00 | 40 | 1012.4 |
| 20260904023549 | 82 | 194 | 13.0 | 15.0 | 0.00 | 0.00 | 0.00 | 40 | 1012.4 |
| 20260904023044 | 82 | 189 | 15.0 | 19.0 | 0.00 | 0.00 | 0.00 | 40 | 1012.5 |
| 20260904022539 | 82 | 204 | 13.0 | 18.0 | 0.00 | 0.00 | 0.00 | 40 | 1012.3 |
| 20260904022036 | 83 | 213 | 17.0 | 21.0 | 0.00 | 0.00 | 0.00 | 40 | 1012.3 |
| 20260904021531 | 83 | 213 | 15.0 | 18.0 | 0.00 | 0.00 | 0.00 | 39 | 1012.3 |
| 20260904021026 | 84 | 191 | 13.0 | 15.0 | 0.00 | 0.00 | 0.00 | 38 | 1012.1 |
| 20260904020526 | 84 | 205 | 19.0 | 22.0 | 0.00 | 0.00 | 0.00 | 37 | 1012.1 |